TimeEST,TemperatureF,Dew PointF,Humidity,Sea Level PressureIn,VisibilityMPH,Wind Direction,Wind SpeedMPH,Gust SpeedMPH,PrecipitationIn,Events,Conditions,WindDirDegrees,DateUTC
12:34 AM,8.6,1.4,73,30.14,4.0,WNW,19.6,28.8,0.00,Snow,Light Snow,290,2013-02-01 05:34:00
12:36 AM,8.6,3.2,79,30.14,2.5,WNW,20.7,-,0.00,Snow,Light Snow,290,2013-02-01 05:36:00
12:47 AM,8.6,1.4,73,30.15,9.0,West,23.0,32.2,0.00,Snow,Light Snow,280,2013-02-01 05:47:00
12:54 AM,8.6,-0.4,67,30.15,9.0,West,21.9,32.2,N/A,Snow,Light Snow,280,2013-02-01 05:54:00
1:19 AM,8.6,1.4,73,30.16,3.0,West,20.7,29.9,0.00,Snow,Light Snow,280,2013-02-01 06:19:00
1:24 AM,8.6,1.4,73,30.16,6.0,West,19.6,-,0.00,Snow,Light Snow,280,2013-02-01 06:24:00
1:34 AM,8.6,1.4,73,30.17,9.0,WNW,19.6,26.5,0.00,Snow,Light Snow,290,2013-02-01 06:34:00
1:54 AM,8.6,1.4,73,30.18,7.0,West,16.1,-,N/A,Snow,Light Snow,280,2013-02-01 06:54:00
2:54 AM,7.0,1.0,77,30.26,5.0,WNW,21.9,27.6,0.00,Snow,Light Snow,300,2013-02-01 07:54:00
3:54 AM,7.0,1.0,77,30.29,5.0,WNW,17.3,25.3,0.00,Snow,Light Snow,290,2013-02-01 08:54:00
4:54 AM,6.1,-2.0,69,30.30,9.0,West,16.1,-,0.00,Snow,Light Snow,280,2013-02-01 09:54:00
5:54 AM,6.1,-0.9,73,30.33,9.0,West,13.8,-,0.00,Snow,Light Snow,280,2013-02-01 10:54:00
6:54 AM,6.1,-0.9,73,30.35,9.0,West,12.7,-,0.00,Snow,Light Snow,280,2013-02-01 11:54:00
7:48 AM,5.0,-0.4,78,30.31,9.0,West,10.4,-,0.00,,Partly Cloudy,280,2013-02-01 12:48:00
7:54 AM,5.0,-0.4,78,30.32,10.0,West,10.4,-,N/A,,Partly Cloudy,270,2013-02-01 12:54:00
8:54 AM,6.8,-0.4,72,30.34,10.0,West,10.4,-,N/A,,Partly Cloudy,280,2013-02-01 13:54:00
9:54 AM,8.6,-0.4,67,30.37,10.0,West,12.7,-,N/A,,Scattered Clouds,270,2013-02-01 14:54:00
10:35 AM,8.6,1.4,73,30.38,10.0,West,13.8,-,N/A,,Mostly Cloudy,270,2013-02-01 15:35:00
10:54 AM,10.4,1.4,67,30.39,10.0,WSW,12.7,-,N/A,,Mostly Cloudy,250,2013-02-01 15:54:00
11:54 AM,10.4,1.4,67,30.40,10.0,West,11.5,-,N/A,,Mostly Cloudy,270,2013-02-01 16:54:00
12:54 PM,12.2,3.2,67,30.39,10.0,WSW,13.8,-,N/A,,Scattered Clouds,250,2013-02-01 17:54:00
1:54 PM,14.0,3.9,64,30.41,10.0,West,13.8,24.2,N/A,,Scattered Clouds,260,2013-02-01 18:54:00
2:45 PM,14.0,3.2,62,30.36,10.0,WSW,17.3,21.9,N/A,,Mostly Cloudy,240,2013-02-01 19:45:00
2:54 PM,15.1,3.9,61,30.40,10.0,WSW,19.6,-,N/A,,Overcast,240,2013-02-01 19:54:00
3:54 PM,14.0,3.9,64,30.40,10.0,WSW,11.5,-,N/A,,Mostly Cloudy,250,2013-02-01 20:54:00
4:54 PM,16.0,5.0,62,30.39,10.0,SW,17.3,-,N/A,,Mostly Cloudy,230,2013-02-01 21:54:00
5:32 PM,14.0,3.2,62,30.34,10.0,SW,13.8,-,N/A,,Scattered Clouds,230,2013-02-01 22:32:00
5:54 PM,14.0,3.9,64,30.39,10.0,WSW,15.0,-,N/A,,Scattered Clouds,240,2013-02-01 22:54:00
6:54 PM,12.9,3.9,67,30.38,10.0,SSW,8.1,-,N/A,,Scattered Clouds,210,2013-02-01 23:54:00
7:54 PM,12.9,5.0,71,30.38,10.0,South,6.9,-,N/A,,Partly Cloudy,190,2013-02-02 00:54:00
8:54 PM,12.9,6.1,74,30.38,10.0,SSW,9.2,-,N/A,,Scattered Clouds,200,2013-02-02 01:54:00
9:54 PM,15.1,7.0,70,30.35,10.0,SSW,12.7,-,N/A,,Overcast,210,2013-02-02 02:54:00
10:54 PM,16.0,8.1,71,30.33,10.0,SSW,10.4,-,N/A,,Overcast,200,2013-02-02 03:54:00
11:54 PM,16.0,8.1,71,30.30,10.0,South,11.5,-,N/A,,Overcast,190,2013-02-02 04:54:00